AirNav   Pilot Hours Calculator
 
 673 users online  

2NH5 Pilgrim's Home Airfield
Westmoreland, New Hampshire, USA

GOING TO WESTMORELAND?


FAA INFORMATION EFFECTIVE 02 DECEMBER 2021

Location

FAA Identifier: 2NH5
Lat/Long: 42-59-25.0000N 072-24-06.0000W
42-59.416667N 072-24.100000W
42.9902778,-72.4016667
(estimated)
Elevation: 600 ft. / 183 m (estimated)
Variation: 15W (2000)
From city: 3 miles NE of WESTMORELAND, NH
Time zone: UTC -5 (UTC -4 during Daylight Saving Time)
Zip code: 03467

Airport Operations

Airport use: Private use. Permission required prior to landing
Activation date: 01/2003
Control tower: no
ARTCC: BOSTON CENTER
FSS: BANGOR FLIGHT SERVICE STATION
Attendance: UNATNDD
Segmented circle: no

Airport Communications

WX AWOS-3PT at EEN (8 nm SE): 119.025 (603-358-6424)

Nearby radio navigation aids

VOR radial/distance  VOR name  Freq  Var
GDMr344/30.7GARDNER VOR/DME110.6014W
CONr264/38.7CONCORD VOR/DME112.9015W

 
NDB name  Hdg/Dist  Freq  Var  ID
CLAREMONT199/22.823316WCNH -.-. -. ....

Airport Services

Runway Information

Runway 17/35

Dimensions: 1200 x 40 ft. / 366 x 12 m
Surface: turf
RUNWAY 17  RUNWAY 35
Traffic pattern: leftleft
Displaced threshold: no300 ft.
Obstructions: 75 ft. trees50 ft. pline

Runway 1/19

Dimensions: 800 x 30 ft. / 244 x 9 m
Surface: turf
RUNWAY 1  RUNWAY 19
Traffic pattern: leftright
Obstructions: 35 ft. bldg15 ft. bldg

Airport Ownership and Management from official FAA records

Ownership: Privately-owned
Owner: WILLIAM FLETCHER
92 THOMPSON ROAD
WESTMORELAND, NH 03467
Phone 603-313-9396
Manager: WILLIAM FLETCHER
92 THOMPSON ROAD
WESTMORELAND, NH
Phone 603-313-9396

Airport Operational Statistics

Aircraft based on the field: 1
Single engine airplanes: 1
    

Additional Remarks

FOR CD CTC BOSTON ARTCC AT 603-879-6859.

Instrument Procedures

There are no published instrument procedures at 2NH5.

Some nearby airports with instrument procedures:

KEEN - Dillant-Hopkins Airport (8 nm SE)
4V8 - Deerfield Valley Regional Airport (21 nm W)
KAFN - Jaffrey/Silver Ranch Airport (21 nm SE)
KVSF - Hartness State Airport (Springfield) (22 nm N)
KCNH - Claremont Municipal Airport (23 nm N)
 
Loc | Ops | Rwys | IFR | FBO | Links
Com | Nav | Svcs | Stats | Notes
Area around 2NH5 (Pilgrim's Home Airfield)
 
Road maps at: MapQuest Bing Google
 
Aerial photo
WARNING: Photo may not be current or correct
Aerial photo of 2NH5 (Pilgrim's Home Airfield)
Do you have a better or more recent aerial photo of Pilgrim's Home Airfield that you would like to share? If so, please send us your photo.

 
Sectional chart

 
Airport distance calculator
Flying to Pilgrim's Home Airfield? Find the distance to fly.

From to 2NH5

Sunrise and sunset
Times for 07-Dec-2021
 Local
(UTC-5)
 Zulu
(UTC)
Morning civil twilight06:3611:36
Sunrise07:0812:08
Sunset16:1421:14
Evening civil twilight16:4621:46

Current date and time
Zulu (UTC)  07-Dec-2021 05:48:59
Local (UTC-5)  07-Dec-2021 00:48:59
 
METAR
KEEN 
9nm SE 
070456Z AUTO 29009KT 10SM BKN050 BKN120 04/M03 A2974 RMK AO2 SLP080 T00441033 401330017 $
TAF
KLEB 
39nm N 
070124Z 0701/0724 25017G25KT 6SM -SHRA BR OVC025 FM070400 26015KT P6SM BKN040 FM071100 26016G24KT P6SM SCT040
KRUT 
40nm NW 
062215Z 0622/0718 20010G20KT P6SM -RA OVC030 WS020/22040KT TEMPO 0622/0702 3SM RA BR OVC015 FM070200 25013G24KT P6SM VCSH BKN020 FM070400 26014G26KT P6SM BKN040
KCON 
41nm E 
070239Z 0703/0724 26020G30KT P6SM OVC040 FM070600 27012G20KT P6SM SCT040
KMHT 
43nm E 
070344Z 0704/0724 28016G27KT 6SM -SHRA BR OVC030 FM070500 26015G24KT P6SM OVC040 FM071300 28013G21KT P6SM FEW250
KCEF 
48nm S 
070300Z 0703/0809 30012G20KT 9999 -SHRA SCT020 OVC040 610403 620709 520004 550409 QNH2966INS TEMPO 0703/0706 31020G35KT 530004 550409 BECMG 0705/0706 28015G25KT 9999 NSW FEW040 FEW250 520004 QNH2983INS BECMG 0714/0715 29010G15KT 9999 FEW040 BKN200 510004 QNH3008INS BECMG 0720/0721 VRB06KT 9999 OVC120 QNH3012INS TX06/0703Z TNM02/0712Z LAST NO AMDS AFT 0704 NEXT 0712
NOTAMs
Click for the latest NOTAMs
NOTAMs are issued by the DoD/FAA and will open in a separate window not controlled by AirNav.

 

 
 

Would you like to see your business listed on this page?

 If your business provides an interesting product or service to pilots, flight crews, aircraft, or users of the Pilgrim's Home Airfield, you should consider listing it here.  To start the listing process, click on the button below
 
Add a business
 

Other Pages about Pilgrim's Home Airfield

Update a link
 
Copyright © AirNav, LLC. All rights reserved. Privacy Policy  Contact